星链-35054 (STARLINK-35054)

导读

STARLINK-35054是美国于2025年8月30日发射的星链卫星,归属于太空探索技术公司(SpaceX)的星链星座项目。作为星链低轨互联网星座的组成部分,该卫星主要服务于全球范围的低延迟宽带互联网覆盖,将为偏远地区、海事、航空等场景提供互联服务,进一步扩充星链星座的服务容量与覆盖范围。

基本信息
目录编号:
65383
目录名称:
STARLINK-35054
国际标识:
2025-191E
轨道中心:
EARTH
卫星名称:
星链-35054
卫星全名:
星链-35054 (STARLINK-35054)
卫星状态:
在轨 (已飞行287 天)
发射日期:
2025-08-30 UTC
国别 :
美国 (US)
星等 :
--
轨道信息
数据来源 国际轨道数据 AOE轨道数据
星历时间 2026-06-13T12:22:04+0800
11小时前
查看轨道信息
2026-06-11T21:00:00+0800
2天前
查看轨道信息
半长轴 6927.627km 6927.629km
偏心率 0.0001804 0.0001588
轨道倾角 97.368° 97.375°
近地点辐角 94.819° 94.397°
升交点赤经 34.718° 33.146°
平近点角 265.325° 20.200°
近地点 548.24km 548.391km
远地点 550.74km 550.593km
周期 95.639分钟 95.639分钟
每日圈数 15.05657 15.056564
详细信息
固有亮度:
5
最大亮度:
2.5
卫星平台:
Starlink V1.0
覆盖范围:
全球
运营商:
太空探索技术公司
运营商所在国:
美国
制造商(研发单位):
太空探索技术公司
制造商所在国:
美国
使用方式:
暂无
卫星简介
Starlink 计划是 SpaceX 推出的全球卫星互联网项目,通过发射低轨道卫星,为全球尤其是偏远地区提供高速、低延迟的互联网服务。自 2019 年起,Starlink 已部署数千颗卫星,旨在缩小全球数字鸿沟,推动互联网普及。该项目还为军事、航空等行业提供通信支持,带来广泛经济效益。
2D轨道图
3D轨道图
轨道高度分析图
轨道倾角分析图
轨道综合分析图
查看轨道综合分析图